[Iaude] MPEC V91: 2016 VO3 [a=1.66,e=0.41,i=12.8,H=26.2]

mpec at si.edu mpec at si.edu
Wed Nov 9 13:33:56 EST 2016


M.P.E.C. 2016-V91                                Issued 2016 Nov.  9, 18:29 UT
 
     The Minor Planet Electronic Circulars contain information on unusual
         minor planets and routine data on comets.  They are published
    on behalf of Division F of the International Astronomical Union by the
          Minor Planet Center, Smithsonian Astrophysical Observatory,
                          Cambridge, MA 02138, U.S.A.

             Prepared using the Tamkin Foundation Computer Network

                              MPC at CFA.HARVARD.EDU
            URL http://www.minorplanetcenter.net/    ISSN 1523-6714


                                   2016 VO3
 
Observations:
     K16V03O* C2016 11 08.38151 02 55 25.81 +38 37 53.5          19.6 VqEV091G96
     K16V03O  C2016 11 08.38587 02 55 32.21 +38 35 51.9          19.3 VqEV091G96
     K16V03O  C2016 11 08.39019 02 55 38.60 +38 33 51.7          19.4 VqEV091G96
     K16V03O  C2016 11 08.39640 02 55 47.74 +38 30 58.2          19.7 VqEV091G96
     K16V03O  C2016 11 08.43906 02 56 50.52 +38 11 05.5          19.5 VqEV091G96
     K16V03O  C2016 11 08.43947 02 56 51.03 +38 10 54.0          19.4 VqEV091G96
     K16V03O KC2016 11 08.80968 03 06 15.99 +35 23 11.7                UEV091204
     K16V03O KC2016 11 08.81413 03 06 21.80 +35 21 15.9          19.5 GUEV091204
     K16V03O KC2016 11 08.81848 03 06 27.54 +35 19 22.4                UEV091204
     K16V03O  C2016 11 09.19454803 14 32.79 +32 36 25.3          20.2 VtEV091H01
     K16V03O  C2016 11 09.20030903 14 39.38 +32 33 59.4          20.3 VtEV091H01
     K16V03O  C2016 11 09.21119603 14 51.75 +32 29 24.0          20.5 VtEV091H01
     K16V03O  C2016 11 09.21698203 14 58.32 +32 26 57.3          20.8 VtEV091H01
     K16V03O  C2016 11 09.21704 03 14 59.49 +32 27 02.7          20.4 RoEV091926
     K16V03O  C2016 11 09.21855 03 15 01.19 +32 26 24.4          20.1 RoEV091926
     K16V03O  C2016 11 09.22006 03 15 02.88 +32 25 46.6          19.9 RoEV091926
     K16V03O  C2016 11 09.22686 03 15 10.41 +32 22 50.5          19.4 VqEV091G96
     K16V03O  C2016 11 09.22730 03 15 10.98 +32 22 39.3          19.8 VqEV091G96
     K16V03O  C2016 11 09.22771 03 15 11.38 +32 22 30.1          19.8 VqEV091G96
     K16V03O  C2016 11 09.22812 03 15 11.88 +32 22 18.7          19.8 VqEV091G96
 
Observer details:
204 Schiaparelli Observatory.  Observer L. Buzzi.  0.60-m f/4.64 reflector
    + CCD.
926 Tenagra II Observatory.  Observers M. Schwartz, P. R. Holvorcem.  Measurer
    M. Schwartz.  0.81-m f/7 Ritchey-Chretien + CCD.
G96 Mt. Lemmon Survey.  Observers R. A. Kowalski, R. G. Matheny.  Measurers
    E. J. Christensen, D. C. Fuls, A. R. Gibbs, A. D. Grauer, J. A. Johnson,
    R. A. Kowalski, S. M. Larson, G. J. Leonard, R. G. Matheny, R. L. Seaman,
    F. C. Shelly.  1.5-m reflector + 10K CCD.
H01 Magdalena Ridge Observatory, Socorro.  Observers W. H. Ryan, E. V. Ryan.
    Measurer W. H. Ryan.  2.4-m f/8.9 reflector + CCD.
 
Orbital elements:
2016 VO3                                                 Earth MOID = 0.0322 AU
Epoch 2016 July 31.0 TT = JDT 2457600.5                 MPC
M 326.15392              (2000.0)            P               Q
n   0.45943471     Peri.  145.51541     +0.95541041     -0.24261333
a   1.6633623      Node   229.44631     +0.19536991     +0.94679539
e   0.4112452      Incl.   12.79864     +0.22140810     +0.21146456
P   2.15           H   26.2           G   0.15           U   7
Residuals in seconds of arc
161108 G96  0.0   0.1+    161108 204  0.4-  0.1+    161109 926  0.0   0.2-
161108 G96  0.2-  0.0     161108 204  0.4-  0.2+    161109 926  0.2-  0.2+
161108 G96  0.2+  0.3+    161109 H01  0.2-  0.0     161109 G96  0.4-  0.1-
161108 G96  0.2+  0.0     161109 H01  0.1-  0.2-    161109 G96  0.6+  0.2-
161108 G96  0.5+  0.3-    161109 H01  0.1-  0.1-    161109 G96  0.2-  1.0+
161108 G96  0.6-  0.3-    161109 H01  0.2+  0.3-    161109 G96  0.3+  0.1-
161108 204  0.6+  0.3-    161109 926  0.1+  0.0

Ephemeris:
2016 VO3                 a,e,i = 1.66, 0.41, 13                  q = 0.9793
Date    TT    R. A. (2000) Decl.     Delta      r     Elong.  Phase     V
2016 10 10    17 46 29.7 +35 05 28   0.1558  0.9798    78.6    92.4    25.4
...
2016 10 25    18 28 36.9 +46 01 17   0.07897 0.9889    83.8    91.7    23.9
...
2016 11 02    20 57 51.8 +62 19 37   0.04231 1.0050   106.3    71.4    21.8
...
2016 11 08    02 44 57.5 +41 33 49   0.03402 1.0216   154.9    24.3    20.0
2016 11 09    03 10 17.0 +34 01 18   0.03590 1.0248   162.6    16.8    19.9
2016 11 10    03 29 02.4 +27 08 15   0.03858 1.0280   168.1    11.4    19.9
...
2016 11 16    04 21 03.8 +02 31 15   0.06462 1.0494   158.9    19.8    21.4
...
2016 11 24    04 41 36.9 -08 23 32   0.1092  1.0826   149.2    27.8    22.8
...
2016 12 09    04 52 05.1 -12 52 50   0.2036  1.1562   144.2    29.9    24.4

A. U. Tomatic                (C) Copyright 2016 MPC           M.P.E.C. 2016-V91




More information about the Iaude mailing list